When you browse on this site, cookies collect data to enhance your experience and personalize the content and advertising you see.
Visit our Privacy Policy to learn more. By continuing to use the site, you agree to this use of cookies and data.
  • în România
  • Lista ţărilor
  • Pe 7 zile
  • Temperatura apei
  • Meteo pe hartă
  • Widget-uri
  • user-avatar
    Intrare

    Meteo pe oră la Trowbridge

    Astăzi, 24 Ianuarie, Vineri

    Timp Temperatura Precipitaţii Vânt Presiune Umiditate
    00:00 +6°C° 0 mm 0 m/s 766 mmHg 92%
    01:00 +6°C° 0 mm 0 m/s 765 mmHg 92%
    02:00 +7°C° 0 mm 1 m/s 765 mmHg 92%
    03:00 +7°C° 0 mm 1 m/s 765 mmHg 92%
    04:00 +5°C° 0 mm 0 m/s 764 mmHg 93%
    05:00 +5°C° 0 mm 0 m/s 764 mmHg 94%
    06:00 +5°C° 0 mm 0 m/s 763 mmHg 92%
    07:00 +6°C° 0 mm 1 m/s 764 mmHg 92%
    08:00 +6°C° 0 mm 1 m/s 764 mmHg 92%
    09:00 +7°C° 0 mm 1 m/s 764 mmHg 92%
    10:00 +7°C° 0 mm 1 m/s 763 mmHg 90%
    11:00 +8°C° 0 mm 1 m/s 763 mmHg 87%
    12:00 +7°C° 0 mm 0 m/s 763 mmHg 86%
    13:00 +8°C° 0 mm 0 m/s 763 mmHg 85%
    14:00 +8°C° 0 mm 0 m/s 763 mmHg 84%
    15:00 +8°C° 0 mm 0 m/s 762 mmHg 83%
    16:00 +7°C° 0 mm 0 m/s 762 mmHg 86%
    17:00 +6°C° 0 mm 0 m/s 762 mmHg 89%
    18:00 +6°C° 0 mm 0 m/s 762 mmHg 92%
    19:00 +6°C° 0 mm 0 m/s 762 mmHg 92%
    20:00 +5°C° 0 mm 0 m/s 762 mmHg 92%
    21:00 +5°C° 0 mm 0 m/s 762 mmHg 92%
    22:00 +6°C° 0 mm 1 m/s 762 mmHg 92%
    23:00 +7°C° 0 mm 1 m/s 762 mmHg 92%

    Mâine, 25 Ianuarie, Sâmbătă

    Timp Temperatura Precipitaţii Vânt Presiune Umiditate
    00:00 +7°C° 0 mm 1 m/s 762 mmHg 92%
    01:00 +6°C° 0 mm 1 m/s 761 mmHg 92%
    02:00 +6°C° 0 mm 1 m/s 761 mmHg 93%
    03:00 +5°C° 0 mm 1 m/s 760 mmHg 93%
    04:00 +5°C° 0 mm 1 m/s 760 mmHg 93%
    05:00 +4°C° 0 mm 1 m/s 760 mmHg 94%
    06:00 +4°C° 0 mm 1 m/s 760 mmHg 94%
    07:00 +4°C° 0 mm 1 m/s 760 mmHg 94%
    08:00 +3°C° 0 mm 2 m/s 760 mmHg 95%
    09:00 +3°C° 0 mm 2 m/s 760 mmHg 95%
    10:00 +5°C° 0 mm 2 m/s 759 mmHg 92%
    11:00 +5°C° 0 mm 3 m/s 759 mmHg 90%
    12:00 +8°C° 0 mm 3 m/s 759 mmHg 87%
    13:00 +8°C° 0 mm 3 m/s 758 mmHg 88%
    14:00 +8°C° 0 mm 2 m/s 758 mmHg 90%
    15:00 +8°C° 0 mm 2 m/s 757 mmHg 92%
    16:00 +8°C° 0 mm 2 m/s 757 mmHg 93%
    17:00 +7°C° 0 mm 2 m/s 756 mmHg 94%
    18:00 +7°C° 0 mm 2 m/s 756 mmHg 95%
    19:00 +7°C° 0 mm 3 m/s 756 mmHg 96%
    20:00 +7°C° 0 mm 3 m/s 756 mmHg 96%
    21:00 +7°C° 0 mm 3 m/s 755 mmHg 96%
    22:00 +7°C° 0 mm 3 m/s 755 mmHg 96%
    23:00 +7°C° 0 mm 3 m/s 755 mmHg 97%

    Poimâine, 26 Ianuarie, Duminică

    Timp Temperatura Precipitaţii Vânt Presiune Umiditate
    00:00 +7°C° 0 mm 3 m/s 755 mmHg 97%
    01:00 +7°C° 0 mm 3 m/s 754 mmHg 96%
    02:00 +7°C° 0 mm 3 m/s 754 mmHg 96%
    03:00 +7°C° 0 mm 3 m/s 754 mmHg 95%
    04:00 +7°C° 0 mm 3 m/s 753 mmHg 94%
    05:00 +7°C° 0 mm 3 m/s 753 mmHg 93%
    06:00 +7°C° 0 mm 3 m/s 753 mmHg 92%
    07:00 +6°C° 0 mm 4 m/s 753 mmHg 91%
    08:00 +6°C° 0 mm 4 m/s 753 mmHg 90%
    09:00 +6°C° 0 mm 5 m/s 752 mmHg 89%
    10:00 +7°C° 0.1 mm 5 m/s 752 mmHg 88%
    11:00 +8°C° 0.1 mm 6 m/s 752 mmHg 87%
    12:00 +9°C° 0.1 mm 7 m/s 751 mmHg 86%
    13:00 +8°C° 0.8 mm 7 m/s 751 mmHg 88%
    14:00 +7°C° 0.8 mm 8 m/s 750 mmHg 90%
    15:00 +7°C° 0.8 mm 8 m/s 750 mmHg 93%
    16:00 +8°C° 1.1 mm 6 m/s 750 mmHg 93%
    17:00 +7°C° 1.1 mm 4 m/s 749 mmHg 93%
    18:00 +8°C° 1.1 mm 3 m/s 749 mmHg 93%
    19:00 +7°C° 0 mm 2 m/s 749 mmHg 94%
    20:00 +7°C° 0 mm 2 m/s 749 mmHg 94%
    21:00 +6°C° 0 mm 2 m/s 749 mmHg 95%
    22:00 +6°C° 0 mm 2 m/s 749 mmHg 95%
    23:00 +5°C° 0 mm 2 m/s 749 mmHg 95%

    27 Ianuarie, Luni

    Timp Temperatura Precipitaţii Vânt Presiune Umiditate
    00:00 +4°C° 0 mm 2 m/s 749 mmHg 95%
    01:00 +3°C° 0 mm 3 m/s 749 mmHg 94%
    02:00 +3°C° 0 mm 3 m/s 749 mmHg 93%
    03:00 +3°C° 0 mm 4 m/s 749 mmHg 92%
    04:00 +4°C° 0.1 mm 4 m/s 748 mmHg 91%
    05:00 +4°C° 0.1 mm 4 m/s 748 mmHg 91%
    06:00 +3°C° 0.1 mm 5 m/s 748 mmHg 90%
    07:00 +5°C° 0.1 mm 5 m/s 747 mmHg 90%
    08:00 +5°C° 0.1 mm 5 m/s 747 mmHg 90%
    09:00 +5°C° 0.1 mm 5 m/s 747 mmHg 90%
    10:00 +5°C° 0.2 mm 6 m/s 747 mmHg 88%
    11:00 +5°C° 0.2 mm 6 m/s 746 mmHg 86%
    12:00 +7°C° 0.2 mm 6 m/s 746 mmHg 83%
    13:00 +7°C° 0.3 mm 6 m/s 745 mmHg 83%
    14:00 +6°C° 0.3 mm 5 m/s 744 mmHg 83%
    15:00 +6°C° 0.3 mm 5 m/s 743 mmHg 83%
    16:00 +6°C° 0.4 mm 4 m/s 743 mmHg 85%
    17:00 +5°C° 0.4 mm 4 m/s 742 mmHg 88%
    18:00 +4°C° 0.4 mm 4 m/s 741 mmHg 90%
    19:00 +4°C° 0.2 mm 4 m/s 741 mmHg 90%
    20:00 +4°C° 0.2 mm 4 m/s 741 mmHg 90%
    21:00 +3°C° 0.2 mm 4 m/s 740 mmHg 91%
    22:00 +2°C° 0.1 mm 5 m/s 740 mmHg 90%
    23:00 +2°C° 0.1 mm 5 m/s 740 mmHg 90%

    28 Ianuarie, Marţi

    Timp Temperatura Precipitaţii Vânt Presiune Umiditate
    00:00 +2°C° 0.1 mm 5 m/s 739 mmHg 89%
    01:00 +2°C° 0.1 mm 5 m/s 740 mmHg 88%
    02:00 +1°C° 0.1 mm 5 m/s 740 mmHg 86%
    03:00 +1°C° 0.1 mm 5 m/s 741 mmHg 85%
    04:00 0°C° 0 mm 5 m/s 741 mmHg 83%
    05:00 0°C° 0 mm 5 m/s 742 mmHg 82%
    06:00 -1°C° 0 mm 4 m/s 743 mmHg 81%
    07:00 0°C° 0 mm 5 m/s 743 mmHg 81%
    08:00 0°C° 0 mm 5 m/s 743 mmHg 82%
    09:00 -1°C° 0 mm 6 m/s 744 mmHg 82%
    10:00 0°C° 0.2 mm 7 m/s 744 mmHg 80%
    11:00 +2°C° 0.2 mm 7 m/s 744 mmHg 78%
    12:00 +2°C° 0.2 mm 8 m/s 744 mmHg 75%
    13:00 +2°C° 0.4 mm 8 m/s 744 mmHg 79%
    14:00 +2°C° 0.4 mm 8 m/s 743 mmHg 83%
    15:00 +1°C° 0.4 mm 8 m/s 743 mmHg 86%
    16:00 +2°C° 0.5 mm 6 m/s 743 mmHg 89%
    17:00 +1°C° 0.5 mm 5 m/s 743 mmHg 91%
    18:00 +1°C° 0.5 mm 4 m/s 742 mmHg 94%
    19:00 +1°C° 0.3 mm 5 m/s 743 mmHg 90%
    20:00 0°C° 0.3 mm 5 m/s 744 mmHg 86%
    21:00 -1°C° 0.3 mm 6 m/s 745 mmHg 83%
    22:00 0°C° 0 mm 5 m/s 746 mmHg 81%
    23:00 0°C° 0 mm 5 m/s 746 mmHg 80%

    29 Ianuarie, Miercuri

    Timp Temperatura Precipitaţii Vânt Presiune Umiditate
    00:00 -1°C° 0 mm 5 m/s 747 mmHg 79%
    01:00 0°C° 0 mm 5 m/s 747 mmHg 80%
    02:00 0°C° 0 mm 5 m/s 748 mmHg 81%
    03:00 0°C° 0 mm 5 m/s 748 mmHg 82%
    04:00 0°C° 0 mm 5 m/s 748 mmHg 82%
    05:00 0°C° 0 mm 5 m/s 749 mmHg 83%
    06:00 0°C° 0 mm 5 m/s 749 mmHg 83%
    07:00 0°C° 0 mm 5 m/s 749 mmHg 83%
    08:00 +1°C° 0 mm 5 m/s 750 mmHg 84%
    09:00 +1°C° 0 mm 5 m/s 750 mmHg 84%
    10:00 +2°C° 0.1 mm 6 m/s 751 mmHg 81%
    11:00 +3°C° 0.1 mm 6 m/s 751 mmHg 78%
    12:00 +4°C° 0.1 mm 7 m/s 751 mmHg 75%
    13:00 +4°C° 0 mm 7 m/s 751 mmHg 77%
    14:00 +4°C° 0 mm 6 m/s 751 mmHg 78%
    15:00 +5°C° 0 mm 6 m/s 752 mmHg 80%
    16:00 +4°C° 0.1 mm 6 m/s 752 mmHg 84%
    17:00 +5°C° 0.1 mm 5 m/s 752 mmHg 88%
    18:00 +5°C° 0.1 mm 4 m/s 752 mmHg 92%
    19:00 +5°C° 0.1 mm 5 m/s 752 mmHg 91%
    20:00 +4°C° 0.1 mm 6 m/s 752 mmHg 90%
    21:00 +5°C° 0.1 mm 7 m/s 752 mmHg 88%
    22:00 +4°C° 0 mm 7 m/s 752 mmHg 89%
    23:00 +4°C° 0 mm 7 m/s 752 mmHg 90%
    Arată mai mult